Location: Mösern
(47.3167°N, 11.1500°E)
Time: 13:54:20
(UTC+00:00)

Daily predictions for brighter satellites

Satellite Brightness Start Highest point End
(mag) Time Altitude Azimuth Time Altitude Azimuth Time Altitude Azimuth
MetOp-B 4.3 19:43:37 10° SSE 19:48:53 65° ENE 19:54:13 10° N
Cosmos 1110 Rocket 4.3 19:45:24 10° S 19:50:26 47° ESE 19:55:31 10° NNE
X-37B 1.1 19:48:42 10° W 19:51:19 36° SSW 19:53:56 10° SE
Cosmos 2154 Rocket 4.5 19:47:13 10° N 19:53:10 45° ENE 19:59:03 10° SE
SL-8 R/B 4.1 19:51:45 10° WNW 19:56:26 52° SSW 20:01:06 10° SE
Cosmos 2228 3.4 19:53:59 10° N 19:58:05 46° ENE 20:02:09 10° SSE
Cosmos 968 Rocket 4.5 19:56:43 10° N 20:01:29 35° ENE 20:06:15 10° SE
Cosmos 1697 Rocket 2.8 19:56:39 10° NNW 20:02:18 73° ENE 20:07:53 10° SSE
Cosmos 1980 Rocket 3.0 19:57:24 10° NNW 20:02:48 42° NE 20:08:09 10° SE
SL-16 R/B 4.3 20:01:02 10° N 20:04:41 17° NE 20:08:20 10° E
ATLAS 5 CENTAUR R/B 3.1 20:09:31 11° SE 20:10:52 12° ESE 20:12:31 10° E
Cosmos 2369 4.2 20:05:33 10° NNW 20:11:11 53° ENE 20:16:35 11° SE
Cosmos 2344 4.4 20:07:43 10° NW 20:16:29 75° NE 20:28:18 11° SE
Cosmos 1408 4.3 20:14:47 11° ESE 20:16:38 16° E 20:18:48 10° NE
Resurs 01 Rocket 2.8 20:12:38 10° S 20:16:51 42° W 20:21:06 10° NNW
Meteor 2-1 Rocket 4.4 20:11:34 10° N 20:17:01 58° ENE 20:22:19 11° SSE
COSMOS 2406 3.4 20:14:56 10° S 20:20:30 53° ESE 20:26:05 10° NE
Cosmos 2184 Rocket 4.1 20:17:54 10° N 20:24:06 84° W 20:30:21 10° S
H-2A R/B 3.5 20:21:40 10° N 20:25:53 42° WNW 20:30:06 10° SW
Cosmos 1833 Rocket 2.7 20:20:30 10° SSW 20:26:06 87° WNW 20:31:47 10° NNE
Cosmos 1867 3.8 20:24:28 10° NNW 20:29:56 64° NE 20:34:38 14° SE
Cosmos 1536 Rocket 4.3 20:27:31 10° SSW 20:31:46 54° WNW 20:36:04 10° N
Cosmos 1703 3.7 20:29:04 10° SSW 20:32:53 63° WNW 20:36:43 10° N
CARTOSAT-1 4.2 20:29:51 10° S 20:34:04 55° W 20:38:19 10° NNW
Cosmos 1825 4.2 20:33:23 11° ESE 20:34:46 13° E 20:36:40 10° NE
USA 245 3.4 20:32:02 10° S 20:35:56 61° WSW 20:39:03 10° NNW
Cosmos 1606 Rocket 3.5 20:31:46 10° N 20:36:08 75° E 20:39:50 14° SSE
Ariane Rocket 4.1 20:33:21 10° S 20:38:10 42° W 20:43:01 10° NNW
Cosmos 2322 Rocket 4.1 20:34:52 10° N 20:39:04 21° NE 20:43:17 10° E
CZ-4B R/B 3.6 20:43:12 10° NNW 20:45:33 22° WNW 20:47:53 10° WSW
USA 234 4.5 20:40:12 10° ENE 20:46:14 41° N 20:52:17 10° WNW
GP-B 4.2 20:42:39 10° NNE 20:46:32 29° E 20:49:01 18° SE
ARIANE 5 R/B 3.0 20:44:14 17° SE 20:47:28 53° ENE 20:51:46 10° N
Terra 1.8 20:44:04 16° SSE 20:47:51 74° ENE 20:52:38 10° N
SPOT 3 Rocket 4.2 20:44:40 10° S 20:49:43 52° W 20:54:50 10° NNW
SPOT 5 2.7 20:46:56 14° S 20:50:40 72° WSW 20:54:59 10° NNW
RESURS DK-1 4.4 20:49:57 10° WNW 20:53:03 20° WSW 20:56:07 10° SSW
Cosmos 2278 4.0 20:47:30 10° NNW 20:53:10 58° ENE 20:57:25 18° SE
USA 276 2.4 20:51:21 10° WNW 20:54:22 60° NNE 20:56:54 13° E
Cosmos 2341 Rocket 4.2 20:48:19 10° N 20:54:35 61° ENE 20:59:17 18° SSE
FALCON 9 DEB 3.2 20:52:30 10° WNW 20:55:45 67° NNE 20:58:00 18° ESE
Cosmos 1726 Rocket 3.5 20:53:41 10° N 20:58:02 84° W 21:01:15 18° S
Meteor 1-11 4.2 20:58:41 14° S 21:03:25 65° E 21:08:57 10° NNE
Cosmos 2082 Rocket 2.2 20:58:34 10° SSW 21:04:16 81° ESE 21:10:00 10° NNE
Okean 1-7 Rocket 4.5 21:03:32 21° SE 21:05:45 34° E 21:09:49 10° NNE
Cosmos 1486 Rocket 4.4 21:01:12 10° NNW 21:06:20 53° ENE 21:09:45 20° SE
Helios 1A Rocket 3.6 21:04:55 15° S 21:08:03 50° W 21:12:04 10° NNW
Spot 2 Rocket 4.1 21:04:02 13° S 21:08:27 52° W 21:13:27 10° NNW
ASTEX 1 3.8 21:03:51 10° NNE 21:08:42 48° E 21:11:39 22° SSE
Cosmos 1328 4.3 21:05:14 10° SSW 21:09:10 58° WNW 21:13:07 10° N
TIMED 4.4 21:07:04 13° SSW 21:10:59 75° ESE 21:15:20 10° NNE
Cosmos 2360 Rocket 3.9 21:09:13 10° N 21:13:45 24° NE 21:18:15 10° E
Nadezhda 1 Rocket 4.5 21:08:35 10° SSW 21:14:33 58° WNW 21:20:33 10° N
Cosmos 1932 4.4 21:11:56 10° SSW 21:18:06 72° ESE 21:24:26 10° NE
Cosmos 2181 Rocket 4.1 21:17:08 20° SSE 21:21:26 61° E 21:27:35 10° NNE
ERS-1 Rocket 3.9 21:22:06 14° SSW 21:26:06 42° W 21:30:53 10° NNW
X-37B 3.0 21:25:18 10° SW 21:25:27 10° SW 21:25:27 10° SW
Cosmos 1892 2.6 21:26:27 24° SSW 21:28:38 81° W 21:32:26 10° N
Cosmos 1602 Rocket 4.4 21:28:28 26° SE 21:29:57 34° E 21:33:51 10° NNE
Cosmos 1503 Rocket 4.1 21:39:31 10° NNW 21:44:49 67° ENE 21:47:32 28° SE
ALOS 2 4.0 21:44:13 19° ESE 21:46:18 27° ENE 21:50:01 10° N
Cosmos 1980 Rocket 3.2 21:41:35 10° NW 21:46:44 36° WSW 21:50:07 19° SSW
Cosmos 2219 Rocket 4.2 21:45:12 10° N 21:49:27 21° NE 21:53:42 10° E
SL-16 R/B 2.3 21:44:09 10° NNW 21:49:51 72° ENE 21:52:57 28° SE
Cosmos 2058 Rocket 4.0 21:46:37 10° NNW 21:50:47 41° W 21:53:20 21° SSW
Cosmos 1408 3.9 21:48:44 15° SW 21:51:02 32° WNW 21:54:12 10° N
Cosmos 1626 Rocket 3.4 21:50:06 32° S 21:52:06 87° E 21:56:30 10° N
USA 267 3.4 21:47:38 10° ENE 21:53:57 49° SE 21:59:31 14° SSW
SL-8 Rocket 4.3 21:47:54 10° NNW 21:54:01 62° W 21:58:01 22° SSW
ATLAS 5 CENTAUR R/B 1.5 21:50:55 10° SW 21:54:36 68° NW 21:58:50 10° NE
Cosmos 2058 4.3 21:53:50 23° ESE 21:54:41 25° E 21:58:05 10° NE
SJ 16-02 1.6 21:57:28 10° NNW 22:01:53 59° ENE 22:03:35 34° SE
In-Cosmos 22 Rocket 4.5 21:59:05 18° SSW 22:03:10 62° WNW 22:08:33 10° N
SL-4 R/B 2.5 22:04:44 34° E 22:04:44 34° E 22:07:09 10° ENE
Cosmos 1825 Rocket 4.4 22:04:05 30° ESE 22:05:06 34° E 22:09:01 10° NNE
Meteor 2-20 4.5 22:03:59 30° SSE 22:07:06 67° E 22:13:09 10° NNE
Cosmos 1825 2.9 22:08:00 27° SW 22:09:41 47° WNW 22:13:19 10° N
Cosmos 2221 4.3 22:10:14 10° NNE 22:13:42 22° ENE 22:15:26 18° ESE
Cosmos 1869 4.3 22:13:26 10° NNW 22:17:04 38° W 22:18:25 28° SW
Cosmos 2322 Rocket 2.1 22:18:11 10° NNW 22:23:54 88° WSW 22:26:28 35° SSE
Terra 4.2 22:23:34 10° WSW 22:26:09 14° W 22:28:46 10° NW
USA 234 3.5 22:22:13 10° ESE 22:28:44 71° NNE 22:35:16 10° NW
USA 276 3.7 22:27:12 10° W 22:28:42 23° W 22:28:42 23° W
Cosmos 1934 Rocket 4.2 22:25:47 10° N 22:31:48 58° ENE 22:34:46 30° SE
Meteor 2-20 Rocket 4.4 22:33:21 33° S 22:36:15 80° E 22:42:22 10° NNE
BREEZE-M DEB (TANK) 3.9 22:34:05 10° WNW 22:37:35 89° NNE 22:52:08 10° ESE
Cosmos 1633 3.5 22:39:00 31° WSW 22:39:54 38° WNW 22:43:11 10° N
Cosmos 1758 Rocket 4.0 22:42:25 33° SW 22:44:05 54° WNW 22:48:25 10° N
Cosmos 1238 4.3 22:44:13 67° WSW 22:44:28 71° W 22:48:04 10° N
Cosmos 2333 Rocket 2.6 22:39:09 10° NNW 22:44:52 58° ENE 22:48:05 26° SE
Cosmos 2082 Rocket 4.5 22:44:39 10° W 22:49:02 22° NW 22:53:27 10° N
COSMOS 2487 4.0 22:52:54 21° ENE 22:52:54 21° ENE 22:54:38 10° NE
Cosmos 1606 3.2 22:49:58 10° NNW 22:53:43 48° W 22:54:21 43° SW
Cosmos-2242 3.9 22:50:06 10° NNW 22:54:03 38° W 22:55:10 32° SW
ADEOS Rocket 3.6 22:53:13 31° S 22:57:10 76° WSW 23:05:00 10° NNW
Cosmos 2360 Rocket 2.2 22:52:40 10° NNW 22:58:21 74° WSW 23:00:31 39° S
ISS -2.1 23:00:49 23° E 23:00:49 23° E 23:02:21 10° ENE
Cosmos 1340 Rocket 2.7 22:58:42 61° S 22:59:21 88° E 23:03:21 10° NNE
Gbstr 26 Del rocket 3.0 22:59:00 28° WSW 23:01:14 82° SSE 23:06:22 10° ENE
Meteor 2-3 Rocket 4.4 23:04:49 31° SE 23:06:50 42° E 23:12:04 10° NNE
Cosmos 2333 4.2 23:02:11 10° NNW 23:08:00 85° ENE 23:10:39 34° SSE
Cosmos 1076 Rocket 4.4 23:09:44 34° ESE 23:10:39 38° E 23:14:42 10° NNE
BREEZE-M DEB (TANK) 2.8 23:12:24 52° ESE 23:12:24 52° ESE 23:17:04 10° ENE
SL-27 R/B 2.8 23:13:18 49° E 23:13:18 49° E 23:16:11 10° NNE
Meteor 2-11 Rocket 4.4 23:08:39 10° N 23:14:47 81° W 23:17:23 37° S
NOSS 3-2 (A) 4.0 23:13:40 30° SE 23:14:51 33° ESE 23:20:16 10° NE
Cosmos 44 3.0 23:14:09 41° SW 23:15:46 85° NW 23:20:14 10° NE
Cosmos 972 Rocket 4.2 23:11:23 10° NNW 23:16:37 68° WSW 23:18:42 39° S
Cosmos 1833 4.1 23:14:26 35° SSW 23:16:55 87° WNW 23:22:34 10° NNE
Cosmos 1782 3.6 23:17:33 10° N 23:21:21 42° ENE 23:22:20 35° ESE
ALOS 2 3.6 23:21:37 31° WSW 23:22:31 34° W 23:26:33 10° NNW
ERS-2 1.9 23:18:58 10° NNE 23:22:34 79° WNW 23:22:56 68° SW
CENTAUR R/B 3.1 23:22:31 31° SSE 23:24:12 38° ESE 23:30:24 10° NE
Cosmos 2237 Rocket 4.0 23:19:45 10° N 23:24:34 27° NE 23:29:21 10° ESE
Cosmos 1605 Rocket 4.0 23:19:03 10° N 23:25:30 89° E 23:28:27 35° S
Cosmos 2297 Rocket 4.0 23:29:19 14° ESE 23:31:14 17° E 23:34:43 10° ENE
COSMOS 2428 3.0 23:25:34 10° NNW 23:31:17 67° ENE 23:34:37 25° SE
Cosmos 2058 4.3 23:29:58 25° WSW 23:31:24 31° WNW 23:35:10 10° N
Cosmos 2151 3.5 23:31:03 41° SE 23:31:59 49° E 23:36:09 10° NNE
SL-16 R/B 3.8 23:29:24 10° NW 23:33:19 19° W 23:34:48 18° WSW
Cosmos 2219 Rocket 2.1 23:28:28 10° NNW 23:34:11 86° WSW 23:36:41 35° SSE
Cosmos 1953 Rocket 4.3 23:33:03 33° WSW 23:34:28 44° WNW 23:38:43 10° N
USA 267 3.6 23:30:39 10° NE 23:37:07 66° NNW 23:43:35 10° WSW
SJ 16-02 3.3 23:37:15 10° WNW 23:39:55 16° W 23:40:31 15° WSW
ATLAS 5 CENTAUR R/B 4.2 23:37:25 10° WNW 23:40:04 16° NNW 23:42:56 10° NNE
SL-4 R/B 2.5 23:40:05 13° W 23:43:07 52° NNW 23:46:48 10° ENE
Cosmos 2322 3.6 23:37:37 10° NNW 23:43:20 80° WSW 23:45:45 36° SSE
Cosmos 1898 Rocket 3.5 23:39:25 10° NNW 23:44:38 74° ENE 23:47:02 32° SE
Cosmos 1937 Rocket 3.9 23:44:36 10° NNW 23:49:49 61° ENE 23:52:46 25° SE
Cosmos 2221 3.3 23:47:17 10° NNW 23:51:22 39° W 23:52:14 35° WSW
COSMOS 2455 3.8 23:46:16 10° NNW 23:52:04 46° NE 23:57:50 10° ESE
PSLV R/B 4.1 23:49:15 10° N 23:53:55 58° WNW 23:55:36 36° SW
Cosmos 1184 Rocket 4.2 23:54:35 10° NNE 23:57:15 27° ENE 23:57:49 25° E
